Weather History for KORD - February, 2012

Change the Weather History Date:

Friday, February 24, 2012

  Actual Average Record
Temperature  
Mean Temperature 31 °F 31 °F  
Max Temperature 35 °F 38 °F 64 °F (1930)
Min Temperature 26 °F 23 °F -11 °F (1873)
Degree Days  
Heating Degree Days 34 34  
Month to date heating degree days 769 909  
Since 1 July heating degree days 3819 4599  
Cooling Degree Days 0 0  
Month to date cooling degree days 0 0  
Year to date cooling degree days 0 0  
Moisture  
Dew Point 27 °F    
Average Humidity 80    
Maximum Humidity 96    
Minimum Humidity 63    
Precipitation  
Precipitation 0.54 in 0.08 in 1.11 in (2001)
Month to date precipitation 1.35 1.48  
Year to date precipitation 3.21 3.21  
Snow  
Snow 3.50 in 0.30 in 6.50 in (1965)
Month to date snowfall 5.6 8.0  
Since 1 July snowfall 19.5 28.7  
Snow Depth 3.00 in    
Sea Level Pressure  
Sea Level Pressure 29.62 in    
Wind  
Wind Speed 16 mph (NW)    
Max Wind Speed 24 mph    
Max Gust Speed 33 mph    
Visibility 4 miles    
Events Snow    
T = Trace of Precipitation, MM = Missing Value Source: NWS Daily Summary

Daily Weather History Graph

Daily Weather History Graph

Search for Another Location

Airport or City:

Trip Planner

Search our weather history database for the weather conditions in past years. The results will help you decide how hot, cold, wet, or windy it might be!

Date:

Astronomy

Feb. 24, 2012 Rise Set
Actual Time 6:35 AM CST 5:35 PM CST
Civil Twilight 6:07 AM CST 6:03 PM CST
Nautical Twilight 5:34 AM CST 6:35 PM CST
Astronomical Twilight 5:02 AM CST 7:08 PM CST
Moon 7:26 AM CST (2/24) 8:43 PM CST (2/24)
Length of Visible Light 11h 56m
Length of Day
10h 59m
Waxing Crescent, 8% of the Moon is Illuminated
Feb 24
Waxing Crescent
Feb 29
First Quarter
Mar 8
Full
Mar 14
Last Quarter
Mar 22
New

Hourly Weather History & Observations

Time (CST) Temp. Windchill Dew Point Humidity Pressure Visibility Wind Dir Wind Speed Gust Speed Precip Events Conditions
12:06 AM 33.8 °F 23.9 °F 32.0 °F 93% 29.44 in 1.2 mi NE 15.0 mph - 0.01 in Snow Light Snow
12:47 AM 33.8 °F 23.9 °F 32.0 °F 93% 29.44 in 0.8 mi NNE 15.0 mph 23.0 mph 0.09 in Snow Light Snow
12:51 AM 34.0 °F 25.0 °F 32.0 °F 92% 29.46 in 0.8 mi NNE 12.7 mph 23.0 mph 0.10 in Snow Light Snow
1:11 AM 33.8 °F 25.3 °F 32.0 °F 93% 29.43 in 1.2 mi NE 11.5 mph - 0.04 in Snow Light Snow
1:26 AM 33.8 °F 24.3 °F 30.2 °F 87% 29.43 in 1.5 mi NE 13.8 mph - 0.06 in Snow Light Snow
1:51 AM 34.0 °F 24.2 °F 30.9 °F 89% 29.45 in 1.5 mi NE 15.0 mph - 0.08 in Snow Light Snow
2:04 AM 33.8 °F 24.3 °F 30.2 °F 87% 29.42 in 1.0 mi NE 13.8 mph - 0.01 in Snow Light Snow
2:51 AM 33.1 °F 23.0 °F 30.9 °F 92% 29.40 in 1.0 mi NE 15.0 mph 21.9 mph 0.05 in Snow Light Snow
3:11 AM 33.8 °F 23.2 °F 30.2 °F 87% 29.38 in 1.5 mi NE 17.3 mph 21.9 mph 0.01 in Snow Light Snow
3:51 AM 34.0 °F 23.8 °F 30.9 °F 89% 29.40 in 1.8 mi NNE 16.1 mph 25.3 mph 0.02 in Snow Light Snow
4:12 AM 33.8 °F 25.3 °F 30.2 °F 87% 29.40 in 1.2 mi North 11.5 mph - 0.03 in Snow Light Snow
4:51 AM 33.1 °F 23.9 °F 30.9 °F 92% 29.42 in 0.8 mi North 12.7 mph 21.9 mph 0.12 in Snow Light Snow
5:51 AM 33.1 °F 23.4 °F 30.9 °F 92% 29.45 in 0.8 mi North 13.8 mph - 0.14 in Snow Light Snow
6:23 AM 33.8 °F 22.2 °F 30.2 °F 87% 29.44 in 1.0 mi NNW 20.7 mph - 0.03 in Snow Light Snow
6:39 AM 33.8 °F 23.5 °F 30.2 °F 87% 29.45 in 1.5 mi NNW 16.1 mph - 0.03 in Snow Light Snow
6:51 AM 33.1 °F 22.2 °F 30.0 °F 89% 29.48 in 1.5 mi NNW 17.3 mph 25.3 mph 0.04 in Snow Light Snow
7:10 AM 32.0 °F 19.8 °F 30.2 °F 93% 29.48 in 1.2 mi NNW 20.7 mph 26.5 mph 0.00 in Snow Light Snow
7:48 AM 32.0 °F 20.1 °F 28.4 °F 87% 29.52 in 1.5 mi NNW 19.6 mph - 0.00 in Snow Light Snow
7:51 AM 32.0 °F 21.6 °F 28.4 °F 87% 29.52 in 1.5 mi NW 15.0 mph 24.2 mph N/A Snow Light Snow
8:51 AM 32.0 °F 20.5 °F 28.9 °F 88% 29.57 in 1.8 mi NW 18.4 mph 24.2 mph 0.00 in Snow Light Snow
8:56 AM 32.0 °F 20.5 °F 28.4 °F 87% 29.55 in 2.0 mi NW 18.4 mph 24.2 mph 0.00 in Snow Light Snow
9:51 AM 33.1 °F 21.9 °F 28.0 °F 82% 29.62 in 2.5 mi NW 18.4 mph 26.5 mph 0.00 in Snow Light Snow
10:41 AM 33.8 °F 24.3 °F 28.4 °F 81% 29.63 in 3.0 mi NW 13.8 mph 21.9 mph 0.00 in Snow Light Snow
10:51 AM 33.1 °F 23.0 °F 28.0 °F 82% 29.66 in 6.0 mi NW 15.0 mph 24.2 mph 0.00 in Snow Light Snow
11:51 AM 34.0 °F 25.0 °F 28.0 °F 79% 29.70 in 9.0 mi WNW 12.7 mph - 0.00 in Snow Light Snow
12:26 PM 33.8 °F 22.8 °F 28.4 °F 81% 29.69 in 4.0 mi WNW 18.4 mph 24.2 mph 0.00 in Snow Light Snow
12:43 PM 33.8 °F 23.5 °F 28.4 °F 81% 29.70 in 6.0 mi WNW 16.1 mph 26.5 mph 0.00 in Snow Light Snow
12:51 PM 34.0 °F 23.8 °F 28.0 °F 79% 29.72 in 5.0 mi WNW 16.1 mph 24.2 mph 0.00 in Snow Light Snow
1:07 PM 33.8 °F 24.3 °F 28.4 °F 81% 29.71 in 4.0 mi WNW 13.8 mph - 0.00 in Snow Light Snow
1:15 PM 33.8 °F 24.3 °F 28.4 °F 81% 29.71 in 6.0 mi West 13.8 mph - 0.00 in Snow Light Snow
1:51 PM 35.1 °F 24.8 °F 27.0 °F 72% 29.74 in 10.0 mi WNW 17.3 mph - 0.00 in   Overcast
2:51 PM 35.1 °F 24.5 °F 26.1 °F 70% 29.78 in 10.0 mi West 18.4 mph 25.3 mph N/A   Overcast
3:51 PM 33.1 °F 23.0 °F 26.1 °F 75% 29.81 in 9.0 mi West 15.0 mph 23.0 mph N/A   Overcast
4:30 PM 33.8 °F 22.8 °F 24.8 °F 70% 29.80 in 10.0 mi West 18.4 mph 25.3 mph N/A   Overcast
4:51 PM 34.0 °F 23.0 °F 25.0 °F 70% 29.82 in 10.0 mi West 18.4 mph 33.4 mph N/A   Overcast
5:32 PM 32.0 °F 19.5 °F 24.8 °F 75% 29.83 in 5.0 mi West 21.9 mph 32.2 mph 0.00 in Snow Light Snow
5:51 PM 30.9 °F 18.4 °F 24.1 °F 76% 29.86 in 7.0 mi West 20.7 mph 29.9 mph 0.00 in Snow Light Snow
6:51 PM 30.0 °F 17.5 °F 21.9 °F 72% 29.89 in 10.0 mi West 19.6 mph 25.3 mph 0.00 in   Overcast
7:51 PM 28.9 °F 17.7 °F 21.0 °F 72% 29.90 in 10.0 mi West 15.0 mph 21.9 mph 0.00 in   Mostly Cloudy
8:51 PM 28.0 °F 15.3 °F 19.9 °F 72% 29.92 in 10.0 mi West 18.4 mph 24.2 mph N/A   Overcast
9:51 PM 27.0 °F 13.9 °F 17.1 °F 66% 29.94 in 10.0 mi West 18.4 mph 24.2 mph N/A   Overcast
10:51 PM 27.0 °F 15.2 °F 15.1 °F 61% 29.94 in 10.0 mi West 15.0 mph 25.3 mph N/A   Overcast
11:51 PM 26.6 °F 15.2 °F 15.8 °F 64% 29.93 in 10.0 mi West 13.8 mph 19.6 mph N/A   Overcast